Preview of NWS' New Version of Forecast
This preview is not operational and should not be used for support decisions.

Regional Weather Roundup (RWR)

Issued by National Weather Service (NWS)

                            
000
ASUS44 KMEG 201810
RWRTN 
TENNESSEE HOURLY STATE WEATHER ROUNDUP
NATIONAL WEATHER SERVICE MEMPHIS TN
100 PM CDT THU JUN 20 2019

TNZ002-004-019-021-049-052-054-088>092-201900-
WEST TENNESSEE
  
CITY           SKY/WX    TMP DP  RH WIND       PRES   REMARKS
MEMPHIS INTL   PTSUNNY   83  72  69 SW6       29.85S                  
JACKSON        PTSUNNY   81  70  69 W10       29.84S                  
DYERSBURG      FAIR      83  68  60 W8        29.83S                  
COVINGTON      MOSUNNY   82  70  65 W10       29.83S                  
UNION CITY     PTSUNNY   82  66  57 W13       29.80R                  
BOLIVAR        PTSUNNY   82  70  65 SW9G16    29.84S                  
PARIS          PTSUNNY   81  68  65 W8G17     29.80                   
HUNTINGDON     MOSUNNY   82  70  65 W9        29.81S                  
LEXINGTON      PTSUNNY   81  68  65 W9G20     29.82S                  
SELMER         PTSUNNY   81  70  69 W10       29.84S                  
SAVANNAH       PTSUNNY   82  70  65 W13       29.84S                  
$$

TNZ008-025-027-028-033-062-065-066-201900-
NORTH MIDDLE TENNESSEE
  
CITY           SKY/WX    TMP DP  RH WIND       PRES   REMARKS
NASHVILLE      CLOUDY    79  67  66 SW8       29.80S                  
DICKSON        MOCLDY    79  68  69 W12G17    29.81R                  
PORTLAND       PTSUNNY   77  68  73 SW9G15    29.78S                  
CLARKSVILLE    PTSUNNY   79  68  69 W13       29.79R                  
LEBANON        CLOUDY    79  68  69 W10       29.78S                  
SMYRNA         CLOUDY    79  68  69 W16G23    29.81R                  
MURFREESBORO   CLOUDY    81  68  65 SW12      29.79S                  
COOKEVILLE     PTSUNNY   79  70  73 S12       29.81F                  
LIVINGSTON     MOCLDY    73  66  78 SW10G20   29.81R                  
GALLATIN       CLOUDY    77  70  78 VRB6G15   29.82R                  
CROSSVILLE     PTSUNNY   72  64  76 SW8G17    29.86R                  
ROCKWOOD       PTCLDY    72  68  88 VRB7      29.84F                  
$$

TNZ061-075-076-078-094-096-097-201900-
SOUTH MIDDLE TENNESSEE
  
CITY           SKY/WX    TMP DP  RH WIND       PRES   REMARKS
LAWRENCEBURG   CLOUDY    79  72  78 VRB7G15   29.85S                  
LEWISBURG      PTCLDY    82  70  65 W9        29.82R                  
FAYETTEVILLE   CLOUDY    77  68  73 SW12      29.85S                  
TULLAHOMA      PTSUNNY   75  66  73 SW6G13    29.84S                  
WINCHESTER     PTSUNNY   79  68  69 W13G18    29.85S                  
MCMINNVILLE    PTSUNNY   77  70  78 VRB7G18   29.83S                  
COLUMBIA       PTSUNNY   79  70  73 SW12G18   29.81R                  
SHELBYVILLE    PTSUNNY   75  70  83 SW7       29.82S HAZE             
$$

TNZ017-018-042-046-047-201900-
NORTHEAST TENNESSEE
  
CITY           SKY/WX    TMP DP  RH WIND       PRES   REMARKS
TRI CITIES     LGT RAIN  73  67  81 SW10      29.82F                  
ELIZABETHTON   CLOUDY    75  66  73 W8        29.82F                  
GREENEVILLE    MOCLDY    73  66  78 SW7G15    29.85S                  
$$

TNZ012-013-036-069-073-074-201900-
CENTRAL EAST TENNESSEE
  
CITY           SKY/WX    TMP DP  RH WIND       PRES   REMARKS
KNOXVILLE      LGT RAIN  74  68  81 SW9       29.82F                  
OAK RIDGE      LGT RAIN  75  69  81 VRB5      29.83F                  
DOWNTOWN KNOXV MOSUNNY   75  70  83 SW6       29.82F                  
GATLINBURG     CLOUDY    75  66  73 SW7       29.83F                  
MORRISTOWN     CLOUDY    73  68  83 SW10      29.82F                  
JACKSBORO      PTSUNNY   73  68  83 S12       29.84S                  
$$

TNZ083-085-099-201900-
SOUTHEAST TENNESSEE
  
CITY           SKY/WX    TMP DP  RH WIND       PRES   REMARKS
CHATTANOOGA    FAIR      82  68  62 S10       29.84S                  
$$

SKY/WX REPORTED AS FAIR MEANS FEW OR NO CLOUDS BELOW
12 THOUSAND FEET.